Погода в Чекашевых Полянах

Россия / Республика Мордовия     54°06′21″N   44°09′54″E
темп.,
°C
ветер,
м/с
пор.,
м/с
влажн.,
%
обл.,
%
осадки,
мм/ч
давл.,
гПа
погр.,
м
6 мая, чт
чт600:00+8юз51276100 0.0 1013290
03:00+8юз5137842 0.0 1014305
06:00+8ююз411846 0.0 1014241
09:00+13ююз61069100 0.0 1015545
12:00+16ююз71059100 0.0 10141533
15:00+17ююз696197 0.0 10141842
18:00+15ююз51068100 0.1 1013389
21:00+11ю41181100 0.1 1013216
7 мая, пт
пт700:00+12ю61373100 0.0 1012331
03:00+11ю61471100 0.0 1012350
06:00+11ю61469100 0.0 1011402
09:00+13ю61275100 0.1 1011587
12:00+11зсз6785100 0.7 1012613
15:00+7сз3691100 3.4 1015424
18:00+10с127499 0.0 1016467
21:00+6ююв22893 0.0 101820
8 мая, сб
сб800:00+5ююв22905 0.0 101820
03:00+5ю129023 0.0 101811
06:00+6вюв248783 0.0 1018129
09:00+11юв576654 0.0 1016701
12:00+14ююв6863100 0.0 10131220
15:00+17ю71059100 0.0 10111549
18:00+14ю61366100 0.0 1010553
21:00+12ююз61378100 0.3 1010499
9 мая, вс
вс900:00+12ююв61684100 0.5 1009612
03:00+11з5895100 1.2 1010508
06:00+9зюз3795100 0.3 1012448
09:00+8зсз3692100 0.4 1014464
12:00+9сз3584100 0.4 1015752
15:00+8ссз4686100 2.8 1017753
18:00+7ссз4791100 2.0 1019524
21:00+6с3792100 2.7 1021315
10 мая, пн
пн1000:00+6ссз4992100 0.1 1022359
03:00+4ссз389472 0.1 1024207
06:00+5с5118935 0.0 1027514
09:00+9ссв79715 0.0 10281001
12:00+12ссв68565 0.0 10281366
15:00+13ссв67535 0.0 10281485
18:00+12ссв48665 0.0 1029422
21:00+7св37815 0.0 103099